Flag for Russia Weather past 2 weeks in Novorossiysk, Russia

Now
88 °F

Passing clouds.


Feels Like: 94 °F
Forecast: 73 / 95 °F
Wind: 10 mph from West

Location: Anapa / Vitiazevo

Current Time: Aug 1, 2014 at 4:52:40 PM

Latest Report: Aug 1, 2014 at 4:00 PM


Visibility: N/A

Pressure: 29.74 "Hg

Humidity: 59%

Dew point: 72 °F

Location of NovorossiyskLocation

Historic Weather in Novorossiysk — Graph

°F

Novorossiysk temperature yesterday

Maximum temperature yesterday: 88 °F (at 1:00 PM)
Minimum temperature yesterday: 64 °F (at 6:30 AM)
Average temperature yesterday: 78 °F

Past Weeks' High & Low Weather Summary

 TemperatureHumidityPressure
High95 °F (Jul 24, 4:30 PM)100% (Jul 22, 5:00 AM)29.95 "Hg (Jul 22, 5:00 AM)
Low63 °F (Jul 18, 6:00 AM)22% (Jul 29, 2:30 PM)29.65 "Hg (Jul 24, 6:30 PM)
Average79 °F59%29.78 "Hg
* Reported Jul 17 3:00 PM — Aug 1 3:30 PM, Novorossiysk, Weather by CustomWeather, © 2014

Note: Actual official high and low records may vary slightly from our data, if they occured in-between our weather recording intervals... More about our weather records

Advertising

Novorossiysk weather history for previous 24 hours

 ConditionsComfort  
Time TempWeatherWind HumidityBarometerVisibility
3:30 PM
Aug 1
88 °FPassing clouds.10 mph62%29.74 "HgN/A
3:00 PM88 °FPassing clouds.10 mph62%29.74 "HgN/A
2:30 PM88 °FPassing clouds.8 mph55%29.74 "HgN/A
2:00 PM93 °FPassing clouds.10 mph36%29.77 "HgN/A
1:30 PM91 °FSunny.15 mph38%29.74 "Hg10 mi
1:00 PM90 °FSunny.15 mph41%29.74 "Hg10 mi
12:30 PM88 °FSunny.15 mph40%29.74 "Hg10 mi
12:00 PM88 °FSunny.15 mph40%29.74 "Hg10 mi
11:30 AM86 °FSunny.15 mph43%29.74 "Hg10 mi
11:00 AM86 °FSunny.15 mph43%29.74 "Hg10 mi
10:30 AM84 °FSunny.15 mph45%29.74 "Hg10 mi
10:00 AM82 °FSunny.15 mph48%29.74 "Hg10 mi
9:30 AM81 °FSunny.17 mph51%29.74 "Hg10 mi
9:00 AM79 °FSunny.15 mph54%29.74 "Hg10 mi
8:30 AM77 °FSunny.15 mph57%29.74 "Hg10 mi
8:00 AM75 °FSunny.13 mph61%29.77 "Hg10 mi
7:30 AM73 °FSunny.10 mph65%29.77 "Hg10 mi
7:00 AM73 °FClear.8 mph65%29.77 "Hg10 mi
6:30 AM72 °FClear.10 mph65%29.77 "Hg10 mi
6:00 AM72 °FClear.10 mph65%29.77 "Hg10 mi
5:00 AM72 °FClear.10 mph65%29.74 "Hg10 mi
4:00 AM72 °FClear.8 mph69%29.74 "Hg10 mi
3:00 AM70 °FClear.1 mph78%29.74 "Hg10 mi
2:00 AM68 °FClear.1 mph88%29.77 "Hg10 mi
1:00 AM66 °FClear.3 mph83%29.77 "Hg10 mi
12:00 AM70 °FClear.1 mph83%29.77 "Hg10 mi
11:30 PM
Jul 31
70 °FClear.1 mph83%29.77 "Hg10 mi
11:00 PM70 °FClear.1 mph83%29.77 "Hg10 mi
10:30 PM72 °FClear.No wind78%29.80 "Hg10 mi
10:00 PM72 °FPassing clouds.3 mph78%29.80 "HgN/A
9:30 PM77 °FSunny.1 mph69%29.80 "Hg10 mi
9:00 PM79 °FPassing clouds.3 mph65%29.80 "HgN/A
8:30 PM81 °FSunny.3 mph62%29.80 "Hg10 mi
8:00 PM82 °FPassing clouds.3 mph58%29.80 "HgN/A
7:30 PM84 °FScattered clouds.6 mph55%29.80 "HgN/A
7:00 PM84 °FScattered clouds.8 mph58%29.80 "HgN/A
6:30 PM84 °FScattered clouds.10 mph55%29.80 "HgN/A
6:00 PM86 °FScattered clouds.8 mph52%29.80 "HgN/A
5:30 PM86 °FScattered clouds.10 mph52%29.80 "HgN/A
5:00 PM86 °FScattered clouds.10 mph52%29.80 "HgN/A
4:30 PM86 °FScattered clouds.10 mph55%29.80 "HgN/A
4:00 PM88 °FScattered clouds.15 mph49%29.80 "HgN/A
Weather by CustomWeather, © 2014

See weather overviewHow to use our weather pages